Regional Weather Roundup
Issued by NWS

Home | Current Version | Previous Version | Text Only | Print | Product List | Glossary Off
Versions: 1 2 3 4 5 6 7 8 9 10 11 12 13 14 15 16 17 18 19 20 21 22 23 24 25 26 27 28 29 30 31 32 33 34 35 36 37 38 39 40 41 42 43 44 45 46 47 48 49 50

946
ASUS43 KIND 111059
RWRIN

WEATHER ROUNDUP FOR INDIANA
NATIONAL WEATHER SERVICE INDIANAPOLIS IN
600 AM EST THU FEB 11 2016

NOTE: "FAIR" INDICATES FEW OR NO CLOUDS BELOW 12,000 FEET WITH NO
SIGNIFICANT WEATHER AND/OR OBSTRUCTIONS TO VISIBILITY.

* - STATION DOES NOT REPORT WEATHER SUCH AS PRECIPITATION OR FOG.

+ - STATION NOT QUALITY CONTROLLED BY THE NATIONAL WEATHER SERVICE.
    USE DATA WITH CAUTION...ESPECIALLY DEWPOINT AND RELATIVE
    HUMIDITY OBSERVATIONS.

INZ001>003-010>013-019-020-111200-
NORTHWEST INDIANA

CITY           SKY/WX    TMP DP  RH WIND       PRES   REMARKS
GARY /AIRPORT/ PTCLDY    12   0  57 W9        30.23R WCI   0
RENSSELAER +   CLEAR     10   1  67 NW6       30.21R WCI   1

$$

LMZ046-743>745-111200-
SOUTHERN LAKE MICHIGAN

STATION/POSITION TIME  TEMP    WIND        PRES    WAVE
                       AIR SEA DIR/SP/G            HT
                 (UTC) (F)     (DEG/KT/KT) (MB)    (FT)
BURNS HARBOR     1001   18     330/ 13/ 20 1022.4R
MICHIGAN CITY    1000   18     320/ 17/ 21   N/A

$$

INZ004-005-014>016-021>024-111200-
NORTH CENTRAL INDIANA

CITY           SKY/WX    TMP DP  RH WIND       PRES   REMARKS
GOSHEN         LGT SNOW  13   9  84 W5        30.14R FOG     WCI   5
SOUTH BEND     CLOUDY    15   9  76 NW5       30.16R WCI   8

$$

INZ006>009-017-018-025>027-111200-
NORTHEAST INDIANA

CITY           SKY/WX    TMP DP  RH WIND       PRES   REMARKS
ANGOLA *+      CLOUDY    12  10  92 CALM      30.11R
FORT WAYNE     FLURRIES  16   8  71 W7        30.16R WCI   6

$$

INZ028-029-035-036-043>045-051>053-111200-
WEST CENTRAL INDIANA

CITY           SKY/WX    TMP DP  RH WIND       PRES   REMARKS
GREENCASTLE +  CLOUDY    14   3  62 CALM      30.21R
LAFAYETTE      PTCLDY     9   3  77 NW7       30.23R WCI  -2
TERRE HAUTE    CLOUDY    12   6  77 N5        30.23R WCI   4

$$

INZ030>032-037>040-046>048-054>057-064-065-111200-
CENTRAL INDIANA

CITY           SKY/WX    TMP DP  RH WIND       PRES   REMARKS
GREENWOOD *+   CLOUDY    14  10  85 W3        30.20
INDIANAPOLIS   MOCLDY    12   5  73 W3        30.18
-EAGLE CREEK   PTCLDY    14   7  73 W5        30.19R WCI   6
KOKOMO *+      PTCLDY     7  -2  66 W7        30.18R WCI  -5
MT COMFORT *+  PTCLDY    10   5  79 W5        30.19R WCI   2
SHELBYVILLE    CLOUDY    14   7  73 W5        30.19R WCI   6

$$

INZ033-034-041-042-049-050-058-059-111200-
EAST CENTRAL INDIANA

CITY           SKY/WX    TMP DP  RH WIND       PRES   REMARKS
MUNCIE         CLEAR      8   3  80 W5        30.17R WCI   0

$$

INZ060-061-067>069-081>083-085>088-111200-
SOUTHWEST INDIANA

CITY           SKY/WX    TMP DP  RH WIND       PRES   REMARKS
EVANSVILLE     CLOUDY    24  17  74 NE7       30.24R WCI  16
HUNTINGBURG *+ CLOUDY    21  14  73 N7        30.23R WCI  13

$$

INZ062-063-066-070>080-084-089>092-111200-
SOUTH CENTRAL AND SOUTHEAST INDIANA

CITY           SKY/WX    TMP DP  RH WIND       PRES   REMARKS
BLOOMINGTON    PTCLDY     5   2  87 CALM      30.19R
MADISON *+     PTCLDY    10   9  92 CALM      30.21R
SEYMOUR +      PTCLDY    14   9  79 CALM      30.23R

$$





USA.gov is the U.S. government's official web portal to all federal, state and local government web resources and services.